TimeCDT,TemperatureF,Dew PointF,Humidity,Sea Level PressureIn,VisibilityMPH,Wind Direction,Wind SpeedMPH,Gust SpeedMPH,PrecipitationIn,Events,Conditions,WindDirDegrees,DateUTC
12:13 AM,37.4,19.4,48,29.84,10.0,South,5.8,-,N/A,,Clear,170,2012-10-08 05:13:00
12:33 AM,37.4,19.4,48,29.83,10.0,SSE,5.8,-,N/A,,Clear,160,2012-10-08 05:33:00
12:53 AM,35.6,19.4,52,29.83,10.0,SSE,4.6,-,N/A,,Clear,160,2012-10-08 05:53:00
1:13 AM,35.6,19.4,52,29.83,10.0,SSE,5.8,-,N/A,,Clear,160,2012-10-08 06:13:00
1:33 AM,35.6,21.2,56,29.82,10.0,SSE,5.8,-,N/A,,Clear,160,2012-10-08 06:33:00
1:53 AM,37.4,21.2,52,29.82,10.0,SSE,6.9,-,N/A,,Clear,160,2012-10-08 06:53:00
2:13 AM,37.4,21.2,52,29.82,10.0,South,6.9,-,N/A,,Clear,170,2012-10-08 07:13:00
2:33 AM,37.4,21.2,52,29.81,10.0,SSE,5.8,-,N/A,,Clear,160,2012-10-08 07:33:00
2:53 AM,37.4,21.2,52,29.81,10.0,South,5.8,-,N/A,,Clear,170,2012-10-08 07:53:00
3:13 AM,37.4,21.2,52,29.80,10.0,South,6.9,-,N/A,,Clear,170,2012-10-08 08:13:00
3:33 AM,37.4,21.2,52,29.79,10.0,South,4.6,-,N/A,,Clear,170,2012-10-08 08:33:00
3:53 AM,35.6,21.2,56,29.79,10.0,South,3.5,-,N/A,,Clear,170,2012-10-08 08:53:00
4:13 AM,35.6,21.2,56,29.78,10.0,South,3.5,-,N/A,,Clear,170,2012-10-08 09:13:00
4:33 AM,33.8,21.2,60,29.78,10.0,SSE,4.6,-,N/A,,Clear,160,2012-10-08 09:33:00
4:53 AM,33.8,21.2,60,29.77,10.0,SSE,3.5,-,N/A,,Clear,150,2012-10-08 09:53:00
5:13 AM,33.8,21.2,60,29.77,10.0,South,3.5,-,N/A,,Clear,170,2012-10-08 10:13:00
5:33 AM,33.8,23.0,65,29.76,10.0,SSE,5.8,-,N/A,,Unknown,160,2012-10-08 10:33:00
5:53 AM,35.6,23.0,60,29.75,10.0,SSE,5.8,-,N/A,,Unknown,160,2012-10-08 10:53:00
6:13 AM,35.6,23.0,60,29.75,10.0,SSE,5.8,-,N/A,,Mostly Cloudy,160,2012-10-08 11:13:00
6:33 AM,37.4,24.8,60,29.74,10.0,SSE,5.8,-,N/A,,Overcast,160,2012-10-08 11:33:00
6:53 AM,37.4,24.8,60,29.74,10.0,SSE,4.6,-,N/A,,Overcast,160,2012-10-08 11:53:00
7:13 AM,37.4,24.8,60,29.74,10.0,SSE,5.8,-,N/A,,Overcast,160,2012-10-08 12:13:00
7:33 AM,37.4,24.8,60,29.73,10.0,SSE,6.9,-,N/A,,Overcast,160,2012-10-08 12:33:00
7:53 AM,39.2,24.8,56,29.73,10.0,South,5.8,-,N/A,,Overcast,170,2012-10-08 12:53:00
8:13 AM,39.2,24.8,56,29.73,10.0,SSE,6.9,-,N/A,,Overcast,150,2012-10-08 13:13:00
8:33 AM,39.2,24.8,56,29.73,10.0,SSE,4.6,-,N/A,,Overcast,160,2012-10-08 13:33:00
8:53 AM,39.2,24.8,56,29.73,10.0,SSE,5.8,-,N/A,,Unknown,160,2012-10-08 13:53:00
9:13 AM,41.0,26.6,57,29.72,10.0,SSE,8.1,-,N/A,,Unknown,160,2012-10-08 14:13:00
9:33 AM,42.8,26.6,53,29.71,10.0,SSE,9.2,-,N/A,,Overcast,160,2012-10-08 14:33:00
9:53 AM,42.8,26.6,53,29.71,10.0,SSE,11.5,16.1,N/A,,Scattered Clouds,160,2012-10-08 14:53:00
10:13 AM,46.4,26.6,46,29.70,10.0,South,10.4,16.1,N/A,,Mostly Cloudy,170,2012-10-08 15:13:00
10:33 AM,46.4,26.6,46,29.69,10.0,South,10.4,-,N/A,,Unknown,170,2012-10-08 15:33:00
10:52 AM,46.4,26.6,46,29.68,10.0,SSE,10.4,-,N/A,,Unknown,160,2012-10-08 15:52:00
11:13 AM,48.2,28.4,46,29.67,10.0,SSE,13.8,18.4,N/A,,Overcast,160,2012-10-08 16:13:00
11:33 AM,50.0,28.4,43,29.66,10.0,South,12.7,-,N/A,,Mostly Cloudy,170,2012-10-08 16:33:00
11:52 AM,50.0,28.4,43,29.65,10.0,South,12.7,-,N/A,,Mostly Cloudy,170,2012-10-08 16:52:00
12:13 PM,53.6,28.4,38,29.64,10.0,SSE,10.4,16.1,N/A,,Unknown,150,2012-10-08 17:13:00
12:33 PM,53.6,28.4,38,29.62,10.0,SSE,11.5,-,N/A,,Unknown,160,2012-10-08 17:33:00
12:52 PM,51.8,30.2,44,29.62,10.0,SSE,17.3,20.7,N/A,,Unknown,150,2012-10-08 17:52:00
1:33 PM,53.6,30.2,41,29.60,10.0,SSE,11.5,-,N/A,,Mostly Cloudy,160,2012-10-08 18:33:00
1:52 PM,53.6,33.8,47,29.59,10.0,SSE,16.1,19.6,N/A,Rain,Light Rain,160,2012-10-08 18:52:00
2:13 PM,51.8,35.6,54,29.57,10.0,SSE,15.0,19.6,N/A,,Light Drizzle,150,2012-10-08 19:13:00
2:33 PM,53.6,35.6,51,29.57,10.0,SSE,11.5,-,N/A,,Scattered Clouds,160,2012-10-08 19:33:00
2:52 PM,55.4,33.8,44,29.57,10.0,South,11.5,19.6,N/A,,Mostly Cloudy,170,2012-10-08 19:52:00
3:13 PM,53.6,35.6,51,29.57,10.0,South,5.8,-,N/A,Rain,Light Rain,180,2012-10-08 20:13:00
3:33 PM,55.4,33.8,44,29.57,10.0,SSW,9.2,17.3,N/A,,Unknown,200,2012-10-08 20:33:00
3:52 PM,53.6,35.6,51,29.57,10.0,SSW,5.8,-,N/A,Rain,Light Rain,210,2012-10-08 20:52:00
4:13 PM,55.4,35.6,47,29.57,10.0,SSW,5.8,-,N/A,,Unknown,200,2012-10-08 21:13:00
4:32 PM,59.0,35.6,42,29.57,10.0,SW,5.8,-,N/A,,Unknown,220,2012-10-08 21:32:00
5:13 PM,60.8,33.8,36,29.57,10.0,SW,9.2,17.3,N/A,,Clear,230,2012-10-08 22:13:00
5:33 PM,59.0,35.6,42,29.58,10.0,WSW,12.7,23.0,N/A,,Clear,250,2012-10-08 22:33:00
5:53 PM,59.0,37.4,45,29.59,10.0,WSW,9.2,17.3,N/A,,Unknown,250,2012-10-08 22:53:00
6:13 PM,57.2,37.4,48,29.60,10.0,WSW,6.9,-,N/A,,Unknown,250,2012-10-08 23:13:00
7:13 PM,55.4,39.2,54,29.64,10.0,West,16.1,20.7,N/A,,Unknown,280,2012-10-09 00:13:00
7:33 PM,53.6,39.2,58,29.66,10.0,WNW,18.4,31.1,N/A,,Unknown,290,2012-10-09 00:33:00
7:53 PM,51.8,37.4,58,29.68,10.0,WNW,17.3,27.6,N/A,,Unknown,290,2012-10-09 00:53:00
8:13 PM,50.0,37.4,62,29.69,10.0,West,15.0,24.2,N/A,,Unknown,280,2012-10-09 01:13:00
8:33 PM,48.2,35.6,62,29.69,10.0,West,6.9,-,N/A,,Unknown,270,2012-10-09 01:33:00
8:53 PM,46.4,35.6,66,29.70,10.0,WSW,5.8,-,N/A,,Unknown,250,2012-10-09 01:53:00
9:13 PM,46.4,35.6,66,29.70,10.0,WSW,4.6,-,N/A,,Unknown,250,2012-10-09 02:13:00
9:33 PM,44.6,35.6,71,29.70,10.0,Calm,Calm,-,N/A,,Clear,0,2012-10-09 02:33:00
9:53 PM,44.6,35.6,71,29.71,10.0,Calm,Calm,-,N/A,,Clear,0,2012-10-09 02:53:00
10:12 PM,44.6,35.6,71,29.71,10.0,Calm,Calm,-,N/A,,Clear,0,2012-10-09 03:12:00
10:53 PM,42.8,35.6,76,29.71,10.0,SSW,3.5,-,N/A,,Clear,210,2012-10-09 03:53:00
11:12 PM,42.8,35.6,76,29.71,10.0,SSW,3.5,-,N/A,,Clear,200,2012-10-09 04:12:00
11:33 PM,42.8,35.6,76,29.71,10.0,SSW,3.5,-,N/A,,Clear,210,2012-10-09 04:33:00
11:52 PM,42.8,35.6,76,29.71,10.0,SSW,3.5,-,N/A,,Clear,210,2012-10-09 04:52:00